User: anonymous   Login
Location: Unspecified
(0.0000°N, 0.0000°E)
Time: 17:18:41
(UTC+00:00)
Language:

KORONAS-FOTON - Orbit

View from above orbital plane
View from above orbital plane
View from above satellite
View from above satellite

Ground track
Ground track

The orbit data is extracted from the following two-line orbital elements,

1 33504U 09003A   15086.14209927  .00002851  00000-0  16040-3 0  9991
2 33504 082.4430 319.9263 0021724 039.6129 320.6683 15.12674715338457
Epoch (UTC): 27 March 2015 03:24:37
Eccentricity: 0.0021724
inclination: 82.4430°
perigee height: 513 km
apogee height: 543 km
right ascension of ascending node: 319.9263°
argument of perigee: 39.6129°
revolutions per day: 15.12674715
mean anomaly at epoch: 320.6683°
orbit number at epoch: 33845

The dashed part of the orbit path shows where the satellite is in the earth's shadow,  

DLR